Hot Springs, VA

5:34 PM EST on February 23, 2017 (GMT -0500)
Ingalls

Weather History for KHSP - December, 2012

Change the Weather History Date:

Wednesday, December 5, 2012

  Actual Average Record
Temperature  
Mean Temperature 42 °F -  
Max Temperature 53 °F 39 °F 69 °F (2001)
Min Temperature 30 °F 27 °F 15 °F (2002)
Degree Days  
Heating Degree Days 24    
Moisture  
Dew Point 31 °F    
Average Humidity 67    
Maximum Humidity 94    
Minimum Humidity 34    
Precipitation  
Precipitation 0.00 in - - ()
Sea Level Pressure  
Sea Level Pressure 30.19 in    
Wind  
Wind Speed 14 mph (WNW)    
Max Wind Speed 23 mph    
Max Gust Speed 30 mph    
Visibility 10 miles    
Events      
Averages and records for this station are not official NWS values.
T = Trace of Precipitation, MM = Missing Value Source: NWS Daily Summary

Daily Weather History Graph

Daily Weather History Graph

Search for Another Location

Airport or City:

Trip Planner

Search our weather history database for the weather conditions in past years. The results will help you decide how hot, cold, wet, or windy it might be!

Date:

Astronomy

Dec. 05, 2012 Rise Set
Actual Time 7:20 AM EST 4:59 PM EST
Civil Twilight 6:51 AM EST 5:28 PM EST
Nautical Twilight 6:18 AM EST 6:01 PM EST
Astronomical Twilight 5:46 AM EST 6:33 PM EST
Moon 11:42 PM EST (12/5) 11:47 AM EST (12/5)
Length of Visible Light 10h 37m
Length of Day
9h 39m
Waning Gibbous, 60% of the Moon is Illuminated
Dec 5
Waning Gibbous
Dec 6
Last Quarter
Dec 13
New
Dec 20
First Quarter
Dec 28
Full

Hourly Weather History & Observations

Time (EST) Temp. Windchill Dew Point Humidity Pressure Visibility Wind Dir Wind Speed Gust Speed Precip Events Conditions
12:15 AM 53.6 °F - 46.4 °F 77% 30.15 in 10.0 mi West 21.9 mph 29.9 mph N/A   Mostly Cloudy
12:35 AM 53.6 °F - 46.4 °F 77% 30.15 in 10.0 mi West 17.3 mph 27.6 mph N/A   Overcast
12:55 AM 53.6 °F - 46.4 °F 77% 30.14 in 10.0 mi West 21.9 mph 29.9 mph N/A   Mostly Cloudy
1:15 AM 53.6 °F - 46.4 °F 77% 30.14 in 10.0 mi West 23.0 mph 27.6 mph N/A   Mostly Cloudy
1:35 AM 53.6 °F - 46.4 °F 77% 30.14 in 10.0 mi West 17.3 mph 25.3 mph N/A   Overcast
1:55 AM 53.6 °F - 46.4 °F 77% 30.14 in 10.0 mi West 18.4 mph 24.2 mph N/A   Overcast
2:15 AM 53.6 °F - 46.4 °F 77% 30.14 in 10.0 mi West 18.4 mph 25.3 mph N/A   Overcast
2:55 AM 51.8 °F - 46.4 °F 82% 30.14 in 10.0 mi West 18.4 mph 26.5 mph N/A   Overcast
3:15 AM 51.8 °F - 46.4 °F 82% 30.14 in 10.0 mi West 13.8 mph 21.9 mph N/A   Overcast
3:35 AM 51.8 °F - 48.2 °F 88% 30.14 in 10.0 mi West 15.0 mph 21.9 mph N/A   Overcast
3:55 AM 50.0 °F - 48.2 °F 94% 30.14 in 10.0 mi NW 10.4 mph 18.4 mph N/A   Overcast
4:15 AM 48.2 °F - 46.4 °F 93% 30.14 in 10.0 mi West 9.2 mph - N/A   Overcast
4:35 AM 46.4 °F 41.9 °F 44.6 °F 93% 30.14 in 10.0 mi WNW 9.2 mph - N/A   Overcast
4:55 AM 46.4 °F 41.5 °F 42.8 °F 87% 30.14 in 10.0 mi WNW 10.4 mph - N/A   Overcast
5:15 AM 44.6 °F 39.2 °F 42.8 °F 93% 30.15 in 10.0 mi NW 10.4 mph 16.1 mph N/A   Light Drizzle
5:35 AM 42.8 °F 36.2 °F 41.0 °F 93% 30.15 in 10.0 mi NW 12.7 mph 18.4 mph N/A   Light Drizzle
5:55 AM 42.8 °F 38.0 °F 39.2 °F 87% 30.16 in 10.0 mi WNW 8.1 mph 19.6 mph N/A   Light Drizzle
6:15 AM 42.8 °F 36.2 °F 39.2 °F 87% 30.17 in 10.0 mi NW 12.7 mph 17.3 mph N/A   Overcast
6:35 AM 42.8 °F 38.6 °F 35.6 °F 76% 30.17 in 10.0 mi NW 6.9 mph 17.3 mph N/A   Overcast
6:55 AM 41.0 °F 34.7 °F 35.6 °F 81% 30.18 in 10.0 mi WNW 10.4 mph 17.3 mph N/A   Mostly Cloudy
7:15 AM 39.2 °F 33.6 °F 33.8 °F 81% 30.18 in 10.0 mi NW 8.1 mph 19.6 mph N/A   Scattered Clouds
7:35 AM 39.2 °F 32.5 °F 33.8 °F 81% 30.19 in 10.0 mi NW 10.4 mph 18.4 mph N/A   Mostly Cloudy
7:55 AM 39.2 °F 31.2 °F 30.2 °F 70% 30.19 in 10.0 mi NW 13.8 mph - N/A   Mostly Cloudy
9:35 AM 39.2 °F 33.0 °F 28.4 °F 65% 30.21 in 10.0 mi WNW 9.2 mph 16.1 mph N/A   Scattered Clouds
9:55 AM 39.2 °F 32.0 °F 28.4 °F 65% 30.22 in 10.0 mi WNW 11.5 mph 18.4 mph N/A   Scattered Clouds
10:15 AM 39.2 °F 32.5 °F 28.4 °F 65% 30.23 in 10.0 mi WNW 10.4 mph 18.4 mph N/A   Scattered Clouds
10:35 AM 39.2 °F 32.5 °F 28.4 °F 65% 30.22 in 10.0 mi WNW 10.4 mph 18.4 mph N/A   Clear
10:55 AM 41.0 °F 34.3 °F 28.4 °F 61% 30.22 in 10.0 mi West 11.5 mph 16.1 mph N/A   Clear
11:15 AM 39.2 °F 32.0 °F 28.4 °F 65% 30.22 in 10.0 mi WNW 11.5 mph 16.1 mph N/A   Clear
11:35 AM 39.2 °F 33.6 °F 28.4 °F 65% 30.22 in 10.0 mi WNW 8.1 mph - N/A   Clear
11:55 AM 42.8 °F 36.2 °F 28.4 °F 57% 30.21 in 10.0 mi WNW 12.7 mph 17.3 mph N/A   Clear
12:15 PM 44.6 °F 38.4 °F 26.6 °F 49% 30.20 in 10.0 mi West 12.7 mph 19.6 mph N/A   Clear
12:35 PM 44.6 °F 38.8 °F 26.6 °F 49% 30.20 in 10.0 mi West 11.5 mph 18.4 mph N/A   Clear
12:55 PM 46.4 °F 40.1 °F 26.6 °F 46% 30.19 in 10.0 mi West 15.0 mph 20.7 mph N/A   Clear
1:15 PM 46.4 °F 41.5 °F 24.8 °F 43% 30.19 in 10.0 mi WNW 10.4 mph 21.9 mph N/A   Clear
1:35 PM 48.2 °F - 24.8 °F 40% 30.18 in 10.0 mi West 11.5 mph 21.9 mph N/A   Clear
1:55 PM 46.4 °F 40.4 °F 24.8 °F 43% 30.18 in 10.0 mi WNW 13.8 mph 19.6 mph N/A   Clear
2:15 PM 46.4 °F 40.7 °F 23.0 °F 40% 30.18 in 10.0 mi WNW 12.7 mph 20.7 mph N/A   Clear
2:35 PM 46.4 °F 40.4 °F 21.2 °F 37% 30.18 in 10.0 mi West 13.8 mph 18.4 mph N/A   Clear
2:55 PM 46.4 °F 41.1 °F 21.2 °F 37% 30.18 in 10.0 mi WNW 11.5 mph 18.4 mph N/A   Clear
3:15 PM 46.4 °F 41.5 °F 21.2 °F 37% 30.18 in 10.0 mi NW 10.4 mph 19.6 mph N/A   Clear
3:35 PM 46.4 °F 41.5 °F 19.4 °F 34% 30.19 in 10.0 mi NW 10.4 mph 16.1 mph N/A   Clear
3:55 PM 46.4 °F 41.5 °F 19.4 °F 34% 30.19 in 10.0 mi NW 10.4 mph 16.1 mph N/A   Clear
4:15 PM 44.6 °F 38.8 °F 19.4 °F 37% 30.19 in 10.0 mi NW 11.5 mph - N/A   Clear
4:35 PM 42.8 °F 36.6 °F 19.4 °F 39% 30.19 in 10.0 mi NW 11.5 mph 20.7 mph N/A   Clear
4:55 PM 42.8 °F 35.8 °F 19.4 °F 39% 30.19 in 10.0 mi NW 13.8 mph 18.4 mph N/A   Clear
5:15 PM 41.0 °F 32.8 °F 17.6 °F 39% 30.19 in 10.0 mi NW 16.1 mph 23.0 mph N/A   Clear
5:35 PM 41.0 °F 33.5 °F 17.6 °F 39% 30.20 in 10.0 mi NW 13.8 mph 20.7 mph N/A   Clear
5:55 PM 39.2 °F 32.0 °F 19.4 °F 45% 30.20 in 10.0 mi NW 11.5 mph 20.7 mph N/A   Clear
6:15 PM 39.2 °F 31.2 °F 21.2 °F 49% 30.21 in 10.0 mi NW 13.8 mph 21.9 mph N/A   Clear
6:35 PM 37.4 °F 29.8 °F 24.8 °F 60% 30.22 in 10.0 mi NW 11.5 mph - N/A   Clear
6:55 PM 37.4 °F 29.3 °F 26.6 °F 65% 30.22 in 10.0 mi NW 12.7 mph 19.6 mph N/A   Clear
7:15 PM 35.6 °F 30.7 °F 26.6 °F 70% 30.22 in 10.0 mi NNW 5.8 mph 16.1 mph N/A   Clear
7:35 PM 35.6 °F 27.5 °F 26.6 °F 70% 30.23 in 10.0 mi NW 11.5 mph 17.3 mph N/A   Clear
7:55 PM 35.6 °F 28.0 °F 26.6 °F 70% 30.23 in 10.0 mi NW 10.4 mph - N/A   Clear
8:16 PM 35.6 °F 27.1 °F 28.4 °F 75% 30.24 in 10.0 mi NW 12.7 mph - N/A   Clear
8:35 PM 33.8 °F 24.3 °F 28.4 °F 81% 30.24 in 10.0 mi NW 13.8 mph - N/A   Clear
8:55 PM 33.8 °F 24.3 °F 28.4 °F 81% 30.24 in 10.0 mi WNW 13.8 mph - N/A   Clear
9:15 PM 33.8 °F 24.8 °F 28.4 °F 81% 30.24 in 10.0 mi WNW 12.7 mph 17.3 mph N/A   Clear
9:55 PM 33.8 °F 25.8 °F 28.4 °F 81% 30.24 in 10.0 mi West 10.4 mph - N/A   Clear
10:18 PM 32.0 °F 23.6 °F 28.4 °F 87% 30.23 in 10.0 mi WNW 10.4 mph - N/A   Clear
10:55 PM - - - N/A% 30.23 in 10.0 mi WNW 4.6 mph - N/A   Clear
11:21 PM 30.2 °F - 26.6 °F 86% 30.24 in 10.0 mi Calm Calm - N/A   Clear
11:37 PM 30.2 °F 24.3 °F 28.4 °F 93% 30.24 in 10.0 mi WNW 5.8 mph - N/A   Clear